Michigan City, IN

5:24 AM CDT on July 22, 2017 (GMT -0500)
Michigan City Municipal

Weather History for KMGC - October, 2012

Change the Weather History Date:

Saturday, October 6, 2012

  Actual Average (KSBN) Record (KSBN)
Temperature  
Mean Temperature 44 °F -  
Max Temperature 46 °F 64 °F 92 °F (1963)
Min Temperature 42 °F 46 °F 25 °F (1935)
Degree Days  
Heating Degree Days 21    
Moisture  
Dew Point 31 °F    
Average Humidity 61    
Maximum Humidity 66    
Minimum Humidity 53    
Precipitation  
Precipitation 0.00 in - - ()
Sea Level Pressure  
Sea Level Pressure 30.11 in    
Wind  
Wind Speed 8 mph ()    
Max Wind Speed 13 mph    
Max Gust Speed 18 mph    
Visibility 10.0 miles    
Events      
Averages and records for this station are not official NWS values.
T = Trace of Precipitation, MM = Missing Value Source: Averaged Metar Reports

Daily Weather History Graph

Daily Weather History Graph

Search for Another Location

Airport or City:

Trip Planner

Search our weather history database for the weather conditions in past years. The results will help you decide how hot, cold, wet, or windy it might be!

Date:

Astronomy

Oct. 06, 2012 Rise Set
Actual Time 6:50 AM CDT 6:19 PM CDT
Civil Twilight 6:22 AM CDT 6:47 PM CDT
Nautical Twilight 5:50 AM CDT 7:19 PM CDT
Astronomical Twilight 5:17 AM CDT 7:51 PM CDT
Moon 10:31 PM CDT (10/6) 12:48 PM CDT (10/6)
Length of Visible Light 12h 25m
Length of Day
11h 29m
Waning Gibbous, 65% of the Moon is Illuminated
Oct 6
Waning Gibbous
Oct 8
Last Quarter
Oct 15
New
Oct 21
First Quarter
Oct 29
Full

Hourly Weather History & Observations

Time (CDT) Temp. Windchill Dew Point Humidity Pressure Visibility Wind Dir Wind Speed Gust Speed Precip Events Conditions
12:15 AM 44.6 °F 39.2 °F 30.2 °F 57% 30.05 in 10.0 mi WNW 10.4 mph 16.1 mph N/A   Clear
12:35 AM 44.6 °F 38.4 °F 30.2 °F 57% 30.05 in 10.0 mi WNW 12.7 mph 17.3 mph N/A   Clear
12:55 AM 44.6 °F 40.2 °F 30.2 °F 57% 30.05 in 10.0 mi WNW 8.1 mph 17.3 mph N/A   Clear
1:15 AM 44.6 °F 40.2 °F 32.0 °F 61% 30.05 in 10.0 mi West 8.1 mph - N/A   Scattered Clouds
1:35 AM 44.6 °F 39.7 °F 30.2 °F 57% 30.05 in 10.0 mi NW 9.2 mph 18.4 mph N/A   Scattered Clouds
1:55 AM 44.6 °F 39.2 °F 30.2 °F 57% 30.04 in 10.0 mi WNW 10.4 mph 17.3 mph N/A   Scattered Clouds
2:15 AM 44.6 °F 39.7 °F 30.2 °F 57% 30.04 in 10.0 mi WNW 9.2 mph 16.1 mph N/A   Scattered Clouds
2:35 AM 44.6 °F 39.7 °F 30.2 °F 57% 30.04 in 10.0 mi WNW 9.2 mph - N/A   Clear
2:55 AM 44.6 °F 39.7 °F 30.2 °F 57% 30.03 in 10.0 mi WNW 9.2 mph - N/A   Clear
3:15 AM 42.8 °F 37.5 °F 30.2 °F 61% 30.03 in 10.0 mi WNW 9.2 mph - N/A   Scattered Clouds
3:35 AM 42.8 °F 38.0 °F 32.0 °F 66% 30.04 in 10.0 mi WNW 8.1 mph - N/A   Scattered Clouds
3:55 AM 44.6 °F 40.7 °F 32.0 °F 61% 30.04 in 10.0 mi NW 6.9 mph 16.1 mph N/A   Scattered Clouds
4:35 AM 42.8 °F 36.6 °F 32.0 °F 66% 30.04 in 10.0 mi WNW 11.5 mph 16.1 mph N/A   Scattered Clouds
4:55 AM 42.8 °F 38.0 °F 32.0 °F 66% 30.04 in 10.0 mi NW 8.1 mph - N/A   Mostly Cloudy
5:15 AM 42.8 °F 38.0 °F 32.0 °F 66% 30.05 in 10.0 mi WNW 8.1 mph - N/A   Mostly Cloudy
5:35 AM 42.8 °F 38.0 °F 32.0 °F 66% 30.05 in 10.0 mi WNW 8.1 mph 16.1 mph N/A   Mostly Cloudy
5:55 AM 42.8 °F 39.3 °F 32.0 °F 66% 30.06 in 10.0 mi West 5.8 mph - N/A   Mostly Cloudy
6:15 AM 42.8 °F 37.5 °F 32.0 °F 66% 30.07 in 10.0 mi West 9.2 mph 17.3 mph N/A   Overcast
6:35 AM 42.8 °F 39.3 °F 32.0 °F 66% 30.07 in 10.0 mi West 5.8 mph - N/A   Overcast
6:55 AM 42.8 °F 37.0 °F 32.0 °F 66% 30.08 in 10.0 mi WNW 10.4 mph 16.1 mph N/A   Overcast
7:15 AM 42.8 °F 37.5 °F 32.0 °F 66% 30.09 in 10.0 mi West 9.2 mph - N/A   Mostly Cloudy
7:35 AM 42.8 °F 39.3 °F 32.0 °F 66% 30.09 in 10.0 mi WNW 5.8 mph - N/A   Overcast
7:55 AM 42.8 °F 38.0 °F 32.0 °F 66% 30.08 in 10.0 mi WNW 8.1 mph - N/A   Overcast
8:15 AM 42.8 °F 37.0 °F 32.0 °F 66% 30.09 in 10.0 mi WNW 10.4 mph 17.3 mph N/A   Overcast
8:35 AM 42.8 °F 37.0 °F 32.0 °F 66% 30.10 in 10.0 mi WNW 10.4 mph 17.3 mph N/A   Overcast
8:55 AM 42.8 °F 36.6 °F 30.2 °F 61% 30.10 in 10.0 mi WNW 11.5 mph 17.3 mph N/A   Overcast
9:15 AM 44.6 °F 40.2 °F 30.2 °F 57% 30.10 in 10.0 mi NW 8.1 mph - N/A   Overcast
9:35 AM 42.8 °F 37.5 °F 30.2 °F 61% 30.11 in 10.0 mi WNW 9.2 mph - N/A   Overcast
9:55 AM 44.6 °F 39.2 °F 30.2 °F 57% 30.12 in 10.0 mi West 10.4 mph - N/A   Overcast
10:35 AM 44.6 °F 39.2 °F 30.2 °F 57% 30.12 in 10.0 mi West 10.4 mph - N/A   Overcast
10:55 AM 44.6 °F 39.7 °F 30.2 °F 57% 30.12 in 10.0 mi NW 9.2 mph - N/A   Overcast
11:15 AM 44.6 °F 40.2 °F 30.2 °F 57% 30.12 in 10.0 mi WNW 8.1 mph 17.3 mph N/A   Overcast
11:35 AM 44.6 °F 39.7 °F 30.2 °F 57% 30.13 in 10.0 mi West 9.2 mph 16.1 mph N/A   Overcast
11:55 AM 44.6 °F 40.2 °F 32.0 °F 61% 30.14 in 10.0 mi WNW 8.1 mph - N/A   Overcast
12:15 PM 42.8 °F 38.0 °F 32.0 °F 66% 30.14 in 10.0 mi West 8.1 mph - N/A   Overcast
12:35 PM 44.6 °F 40.7 °F 32.0 °F 61% 30.14 in 10.0 mi West 6.9 mph - N/A   Overcast
12:55 PM 44.6 °F 40.2 °F 32.0 °F 61% 30.13 in 10.0 mi WNW 8.1 mph 16.1 mph N/A   Overcast
1:15 PM 44.6 °F 40.7 °F 32.0 °F 61% 30.14 in 10.0 mi WNW 6.9 mph - N/A   Overcast
1:35 PM 44.6 °F 40.7 °F 32.0 °F 61% 30.13 in 10.0 mi WNW 6.9 mph - N/A   Overcast
1:55 PM 44.6 °F 39.7 °F 30.2 °F 57% 30.13 in 10.0 mi West 9.2 mph - N/A   Overcast
2:15 PM 46.4 °F 41.9 °F 30.2 °F 53% 30.12 in 10.0 mi West 9.2 mph - N/A   Mostly Cloudy
2:35 PM 46.4 °F 41.9 °F 30.2 °F 53% 30.12 in 10.0 mi WNW 9.2 mph 16.1 mph N/A   Overcast
2:55 PM 46.4 °F 41.5 °F 30.2 °F 53% 30.12 in 10.0 mi WNW 10.4 mph - N/A   Overcast
3:15 PM 46.4 °F 41.5 °F 30.2 °F 53% 30.12 in 10.0 mi WNW 10.4 mph - N/A   Overcast
3:35 PM 46.4 °F 43.5 °F 32.0 °F 57% 30.12 in 10.0 mi WNW 5.8 mph - N/A   Overcast
3:55 PM 44.6 °F 42.2 °F 32.0 °F 61% 30.12 in 10.0 mi WNW 4.6 mph - N/A   Overcast
4:15 PM 44.6 °F 42.2 °F 32.0 °F 61% 30.12 in 10.0 mi WNW 4.6 mph - N/A   Overcast
4:35 PM 44.6 °F 42.2 °F 32.0 °F 61% 30.13 in 10.0 mi WNW 4.6 mph - N/A   Overcast
4:55 PM 44.6 °F 42.2 °F 32.0 °F 61% 30.13 in 10.0 mi West 4.6 mph - N/A   Overcast
5:15 PM 44.6 °F 41.4 °F 32.0 °F 61% 30.13 in 10.0 mi WNW 5.8 mph - N/A   Overcast
5:35 PM 44.6 °F 43.1 °F 32.0 °F 61% 30.13 in 10.0 mi NW 3.5 mph - N/A   Overcast
5:55 PM 44.6 °F 40.7 °F 32.0 °F 61% 30.13 in 10.0 mi NW 6.9 mph - N/A   Overcast
6:15 PM 44.6 °F 43.1 °F 32.0 °F 61% 30.14 in 10.0 mi NW 3.5 mph - N/A   Overcast
6:35 PM 44.6 °F 40.7 °F 32.0 °F 61% 30.14 in 10.0 mi WNW 6.9 mph - N/A   Overcast
6:55 PM 44.6 °F 41.4 °F 30.2 °F 57% 30.14 in 10.0 mi WNW 5.8 mph - N/A   Overcast
7:15 PM 44.6 °F 42.2 °F 30.2 °F 57% 30.15 in 10.0 mi West 4.6 mph - N/A   Overcast
7:35 PM 44.6 °F 42.2 °F 30.2 °F 57% 30.15 in 10.0 mi West 4.6 mph - N/A   Overcast
7:55 PM 44.6 °F 43.1 °F 30.2 °F 57% 30.15 in 10.0 mi WNW 3.5 mph - N/A   Overcast
8:15 PM 44.6 °F 42.2 °F 30.2 °F 57% 30.15 in 10.0 mi WNW 4.6 mph - N/A   Overcast
8:35 PM 44.6 °F 43.1 °F 32.0 °F 61% 30.15 in 10.0 mi WNW 3.5 mph - N/A   Overcast
8:55 PM 44.6 °F 41.4 °F 32.0 °F 61% 30.15 in 10.0 mi WNW 5.8 mph - N/A   Overcast
9:15 PM 44.6 °F 42.2 °F 32.0 °F 61% 30.15 in 10.0 mi WNW 4.6 mph - N/A   Overcast
9:35 PM 44.6 °F 41.4 °F 32.0 °F 61% 30.15 in 10.0 mi WNW 5.8 mph - N/A   Overcast
9:55 PM 44.6 °F 42.2 °F 32.0 °F 61% 30.15 in 10.0 mi West 4.6 mph - N/A   Overcast
10:15 PM 44.6 °F 42.2 °F 32.0 °F 61% 30.14 in 10.0 mi West 4.6 mph - N/A   Overcast
10:35 PM 42.8 °F - 32.0 °F 66% 30.15 in 10.0 mi Calm Calm - N/A   Overcast
10:55 PM 44.6 °F 41.4 °F 32.0 °F 61% 30.15 in 10.0 mi SSW 5.8 mph - N/A   Overcast
11:15 PM 42.8 °F 39.3 °F 32.0 °F 66% 30.14 in 10.0 mi SW 5.8 mph - N/A   Overcast
11:55 PM 42.8 °F 38.0 °F 32.0 °F 66% 30.13 in 10.0 mi SW 8.1 mph - N/A   Overcast